Regional Weather Roundup
Issued by NWS

Home | Current Version | Previous Version | Graphics & Text | Print | Product List | Glossary On
Versions: 1 2 3 4 5 6 7 8 9 10 11 12 13 14 15 16 17 18 19 20 21 22 23 24 25 26 27 28 29 30 31 32 33 34 35 36 37 38 39 40 41 42 43 44 45 46 47 48 49 50
112
ASUS43 KMKX 241100
RWRWI

WISCONSIN REGIONAL WEATHER ROUNDUP
NATIONAL WEATHER SERVICE MILWAUKEE/SULLIVAN WI
600 AM CDT SAT JUN 24 2017

NOTE: "FAIR" INDICATES FEW OR NO CLOUDS BELOW 12,000 FEET WITH NO
SIGNIFICANT WEATHER AND/OR OBSTRUCTIONS TO VISIBILITY.

WIZ001-002-006>008-014>016-023>028-241200-
NORTHWEST WISCONSIN

CITY           SKY/WX    TMP DP  RH WIND       PRES   REMARKS
SUPERIOR ARPT  NOT AVBL
ASHLAND        CLOUDY    54  50  86 W8        29.87R
HAYWARD        CLOUDY    53  47  79 W7        29.90R
SIREN          PTCLDY    50  45  83 CALM      29.93R
CUMBERLAND     CLEAR     48  45  87 W7        29.93R
RICE LAKE      CLEAR     52  46  81 W5        29.94R
CHETEK         CLEAR     52  47  83 NW6       29.92S
LADYSMITH      PTCLDY    53  49  86 W7        29.92R
EAU CLAIRE     CLEAR     53  49  86 W6        29.93R
MENOMONIE      CLEAR     52  49  90 W5        29.94R
NEW RICHMOND   CLEAR     50  48  95 W8        29.96R
OSCEOLA        CLEAR     52  45  76 W8        29.98R
$$

WIZ003>005-009-010-017-018-241200-
NORTH CENTRAL WISCONSIN

CITY           SKY/WX    TMP DP  RH WIND       PRES   REMARKS
MANITOWISH WTR CLOUDY    53  52  97 W10       29.85S
ARBOR VITAE    CLOUDY    57  52  84 NW8       29.85R
WOODRUFF       CLOUDY    57  52  84 NW8       29.85R
RHINELANDER    CLOUDY    55  52  89 W7        29.87R
EAGLE RIVER    CLOUDY    55  49  80 NW7       29.84R
LAND O LAKES   CLOUDY    56  51  84 W7        29.86R
PHILLIPS       CLOUDY    53  52  97 W3        29.88R
TOMAHAWK       NOT AVBL
MEDFORD        PTCLDY    51  49  93 W7        29.89S
MERRILL        CLOUDY    55  52  92 W7        29.88R
$$

WIZ029-030-035-036-043>047-241200-
CENTRAL WISCONSIN

CITY           SKY/WX    TMP DP  RH WIND       PRES   REMARKS
WAUSAU         CLOUDY    56  51  84 W10       29.87R
MOSINEE        MOCLDY    54  52  94 NW10      29.90R
MARSHFIELD     PTCLDY    53  50  89 W9        29.90R
STEVENS POINT  MOCLDY    55  52  90 W6        29.89R
WAUPACA        CLOUDY    60  55  85 W6        29.88S
WAUTOMA        CLOUDY    59  54  83 NW7       29.90R
WISC RAPIDS    PTCLDY    55  50  83 NW6       29.91R
CAMP DOUGLAS   NOT AVBL
$$

WIZ011>013-019>022-031-037>040-048>050-241200-
NORTHEAST WISCONSIN

CITY           SKY/WX    TMP DP  RH WIND       PRES   REMARKS
ANTIGO         CLOUDY    54  52  95 W7        29.86S
SHAWANO        CLOUDY    60  54  80 W6        29.85R
OCONTO         CLOUDY    56  53  87 W8        29.82R
STURGEON BAY   NOT AVBL
GREEN BAY      CLOUDY    60  56  86 W9        29.84S
MANITOWOC      NOT AVBL
APPLETON       MOCLDY    57  52  82 W9        29.85R
CLINTONVILLE   CLOUDY    59  52  77 W8        29.86R
OSHKOSH        CLOUDY    59  53  80 W12       29.86S
$$

WIZ032>034-041-042-053>061-241200-
SOUTHWEST WISCONSIN

CITY           SKY/WX    TMP DP  RH WIND       PRES   REMARKS
LA CROSSE      CLEAR     61  51  70 NW8       29.94S
SPARTA         PTCLDY    53  51  92 CALM      29.94S
VIROQUA        CLEAR     54  53  98 W5        29.95R
BOSCOBEL       CLEAR     58  53  84 W5        29.95R
PRAIRIE DU CHI CLEAR     57  49  74 NW3       29.96S
PLATTEVILLE    CLEAR     56  54  95 W7        29.96R
$$

WIZ056-057-062-063-064-067-068-241200-
SOUTH CENTRAL WISCONSIN

CITY           SKY/WX    TMP DP  RH WIND       PRES   REMARKS
REEDSBURG      PTCLDY    56  54  95 W6        29.92R
BARABOO/DELLS  PTCLDY    56  51  82 W8        29.92R
LONE ROCK      NOT AVBL
MINERAL POINT  CLEAR     55  55 100 W7        29.94R
MADISON        PTCLDY    57  53  86 NW6       29.91R
MIDDLETON      CLEAR     57  54  89 W6        29.92R
WATERTOWN      CLEAR     57  55  90 W5        29.89R
MONROE         CLEAR     55  52  88 W10       29.93R
JANESVILLE     CLEAR     57  55  94 W6        29.91R
$$

WIZ051-052-058>065-066-070>072-241200-
SOUTHEAST WISCONSIN

CITY           SKY/WX    TMP DP  RH WIND       PRES   REMARKS
MILWAUKEE      PTCLDY    62  54  74 W9        29.88R
WAUKESHA       CLEAR     57  52  82 W9        29.90R
MILWAUKEE/TIMM CLEAR     57  50  77 W8        29.88R
RACINE         CLEAR     61  53  75 W9        29.89R
KENOSHA        CLEAR     59  54  83 W7        29.89R
FOND DU LAC    MOCLDY    59  52  77 W9        29.87S
SHEBOYGAN      PTCLDY    60  56  86 NW8       29.85R
WEST BEND      PTCLDY    57  54  88 W13       29.86S
JUNEAU         PTCLDY    57  52  85 CALM      29.89S
$$

LSZ147-162-241200-
LAKE SUPERIOR

STATION/POSITION TIME  TEMP    WIND        PRES    WAVE
                       AIR SEA DIR/SP/G            HT/PER
                 (UTC) (F)     (DEG/KT/KT) (MB)    (FT/S)
W MID LAKE BUOY  0950   44 39  260/ 10/ 10 1009.4R   1/ 3
DEVILS ISLAND    1000   53     260/ 14/ 17 1010.4R
SAXON HARBOR     1040   56     210/  5/  7 1010.8R
$$

LMZ867-665-643>646-241200-
LAKE MICHIGAN

STATION/POSITION TIME  TEMP    WIND        PRES    WAVE
                       AIR SEA DIR/SP/G            HT/PER
                 (UTC) (F)     (DEG/KT/KT) (MB)    (FT/S)
CHAMBERS ISLAND  1040   59     270/  5/ 11 1009.1R
S GREEN BAY BUOY 1030   60     280/ 12/ 16 1009.6R
N MID LAKE BUOY  0950   58 56  270/  6/  8 1008.9R   1
NORTHPORT PIER   1040   60     300/ 12/ 16 1009.1R
KEWAUNEE LAKESHO 1030   60     290/  6/ 10 1009.5R
SHEBOYGAN LAKESH 1000   61     280/ 15/ 18 1009.8R
PORT WASHINGTON  1030   61     300/  6/ 13 1011.9R
ATWATER BUOY     0909   62 59  270/ 16/ 17 1011.0R
MILWAUKEE LAKESH 1030   61     290/ 11/ 13   N/A
S MID LAKE BUOY  0950   62 61  310/ 14/ 16 1010.7R   2/ 4
KENOSHA   LAKESH 1000   62     290/  9/ 14 1011.5
$$

TC  - TEMPERATURE IN CELSIUS
VSB - VISIBILITY IN STATUTE MILES
WCI - WIND CHILL INDEX
HX  - HEAT INDEX





USA.gov is the U.S. government's official web portal to all federal, state and local government web resources and services.